North Wilkesboro, NC

12:39 PM EST on February 26, 2017 (GMT -0500)
Wilkes County

Weather History for KUKF - February, 2013

Change the Weather History Date:

Tuesday, February 26, 2013

  Actual Average Record
Temperature  
Mean Temperature 34 °F -  
Max Temperature 37 °F 52 °F 73 °F (1976)
Min Temperature 32 °F 26 °F 5 °F (1967)
Degree Days  
Heating Degree Days 30    
Moisture  
Dew Point 32 °F    
Average Humidity 94    
Maximum Humidity 100    
Minimum Humidity 65    
Precipitation  
Precipitation 0.98 in - - ()
Sea Level Pressure  
Sea Level Pressure 29.85 in    
Wind  
Wind Speed 6 mph (ENE)    
Max Wind Speed 15 mph    
Max Gust Speed 22 mph    
Visibility 3 miles    
Events Fog , Rain , Snow    
Averages and records for this station are not official NWS values.
T = Trace of Precipitation, MM = Missing Value Source: NWS Daily Summary

Daily Weather History Graph

Daily Weather History Graph

Search for Another Location

Airport or City:

Trip Planner

Search our weather history database for the weather conditions in past years. The results will help you decide how hot, cold, wet, or windy it might be!

Date:

Astronomy

Feb. 26, 2013 Rise Set
Actual Time 6:58 AM EST 6:16 PM EST
Civil Twilight 6:32 AM EST 6:42 PM EST
Nautical Twilight 6:02 AM EST 7:12 PM EST
Astronomical Twilight 5:32 AM EST 7:42 PM EST
Moon 7:27 PM EST 7:03 AM EST
Length of Visible Light 12h 10m
Length of Day
11h 18m
Full, 99% of the Moon is Illuminated
Feb 26
Full
Mar 4
Last Quarter
Mar 11
New
Mar 19
First Quarter
Mar 27
Full

Hourly Weather History & Observations

Time (EST) Temp. Windchill Dew Point Humidity Pressure Visibility Wind Dir Wind Speed Gust Speed Precip Events Conditions
12:15 AM 33.8 °F 29.6 °F 23.0 °F 65% 30.16 in 10.0 mi NE 4.6 mph - N/A   Overcast
12:35 AM 33.8 °F 29.6 °F 23.0 °F 65% 30.16 in 10.0 mi NE 4.6 mph - N/A   Overcast
12:55 AM 33.8 °F 27.7 °F 23.0 °F 65% 30.13 in 10.0 mi ENE 6.9 mph - N/A   Overcast
1:15 AM 33.8 °F 27.0 °F 23.0 °F 65% 30.12 in 10.0 mi NE 8.1 mph - N/A   Overcast
1:35 AM 33.8 °F 27.7 °F 23.0 °F 65% 30.12 in 10.0 mi ENE 6.9 mph - N/A   Overcast
1:55 AM 33.8 °F 29.6 °F 23.0 °F 65% 30.12 in 10.0 mi ENE 4.6 mph - N/A   Overcast
2:15 AM 33.8 °F 28.6 °F 23.0 °F 65% 30.12 in 10.0 mi ENE 5.8 mph - N/A   Overcast
2:35 AM 33.8 °F 28.6 °F 23.0 °F 65% 30.11 in 10.0 mi NE 5.8 mph - N/A   Overcast
2:55 AM 33.8 °F 27.7 °F 24.8 °F 70% 30.10 in 10.0 mi NE 6.9 mph - N/A   Drizzle
3:15 AM 32.0 °F 23.0 °F 26.6 °F 80% 30.09 in 7.0 mi ENE 11.5 mph 16.1 mph N/A   Light Drizzle
3:35 AM 32.0 °F 24.2 °F 28.4 °F 87% 30.08 in 5.0 mi NE 9.2 mph - N/A   Overcast
3:55 AM 32.0 °F 25.6 °F 30.2 °F 93% 30.07 in 3.0 mi NE 6.9 mph - N/A   Overcast
4:15 AM 32.0 °F 25.6 °F 30.2 °F 93% 30.09 in 2.5 mi NE 6.9 mph - N/A   Overcast
4:35 AM 32.0 °F 24.8 °F 30.2 °F 93% 30.08 in 3.0 mi NE 8.1 mph - N/A   Overcast
4:55 AM 32.0 °F 24.2 °F 30.2 °F 93% 30.08 in 3.0 mi NE 9.2 mph - N/A   Overcast
5:15 AM 32.0 °F 23.0 °F 30.2 °F 93% 30.06 in 3.0 mi NE 11.5 mph 20.7 mph N/A   Overcast
5:35 AM 32.0 °F 21.6 °F 30.2 °F 93% 30.05 in 3.0 mi NE 15.0 mph 21.9 mph N/A   Overcast
5:55 AM 32.0 °F 23.6 °F 30.2 °F 93% 30.05 in 5.0 mi ENE 10.4 mph 16.1 mph N/A   Overcast
6:15 AM 32.0 °F 23.6 °F 30.2 °F 93% 30.04 in 4.0 mi NE 10.4 mph - N/A Rain Light Rain
6:35 AM 32.0 °F 24.2 °F 30.2 °F 93% 30.03 in 3.0 mi NE 9.2 mph 21.9 mph 0.02 in Rain Rain
6:55 AM 32.0 °F 24.2 °F 30.2 °F 93% 30.01 in 4.0 mi NE 9.2 mph 16.1 mph 0.04 in Snow Snow
7:15 AM 32.0 °F 24.8 °F 30.2 °F 93% 30.01 in 5.0 mi NE 8.1 mph 18.4 mph 0.02 in Rain Rain
7:35 AM 32.0 °F 23.0 °F 30.2 °F 93% 29.99 in 3.0 mi ENE 11.5 mph 17.3 mph 0.04 in Rain Light Rain
7:55 AM 32.0 °F 24.8 °F 32.0 °F 100% 30.00 in 2.0 mi East 8.1 mph - 0.07 in   Overcast
8:15 AM 32.0 °F 25.6 °F 32.0 °F 100% 29.98 in 2.0 mi ENE 6.9 mph - 0.03 in   Overcast
8:35 AM 32.0 °F 25.6 °F 32.0 °F 100% 29.97 in 3.0 mi NE 6.9 mph - 0.06 in Rain Rain
8:55 AM 32.0 °F 23.6 °F 32.0 °F 100% 29.95 in 4.0 mi ENE 10.4 mph - 0.08 in Rain Light Rain
9:15 AM 32.0 °F 24.8 °F 32.0 °F 100% 29.93 in 4.0 mi ENE 8.1 mph - 0.01 in Rain Light Rain
9:35 AM 32.0 °F 25.6 °F 32.0 °F 100% 29.94 in 2.0 mi East 6.9 mph - 0.06 in Rain Rain
9:55 AM 32.0 °F 23.6 °F 32.0 °F 100% 29.89 in 1.5 mi ENE 10.4 mph - 0.11 in Rain Light Rain
10:15 AM 32.0 °F 25.6 °F 32.0 °F 100% 29.89 in 1.2 mi East 6.9 mph - 0.06 in Snow Light Snow
10:35 AM 32.0 °F 24.2 °F 32.0 °F 100% 29.86 in 2.0 mi ENE 9.2 mph - 0.10 in Rain Rain
10:55 AM 32.0 °F 25.6 °F 32.0 °F 100% 29.86 in 3.0 mi ENE 6.9 mph - 0.12 in Rain Rain
11:15 AM 32.0 °F 27.5 °F 32.0 °F 100% 29.86 in 2.0 mi ENE 4.6 mph - 0.05 in Rain Light Rain
11:35 AM 32.0 °F 27.5 °F 32.0 °F 100% 29.85 in 1.2 mi ENE 4.6 mph - 0.09 in Rain Rain
11:55 AM 32.0 °F 28.7 °F 32.0 °F 100% 29.84 in 3.0 mi NE 3.5 mph - 0.12 in   Drizzle
12:15 PM 32.0 °F 25.6 °F 32.0 °F 100% 29.81 in 2.0 mi NE 6.9 mph - 0.03 in Rain Heavy Rain
12:35 PM 32.0 °F 24.8 °F 32.0 °F 100% 29.78 in 3.0 mi NE 8.1 mph - 0.07 in Rain Rain
12:55 PM 32.0 °F 25.6 °F 32.0 °F 100% 29.77 in 3.0 mi ENE 6.9 mph - 0.13 in   Drizzle
1:15 PM 33.8 °F 29.6 °F 32.0 °F 93% 29.75 in 1.8 mi NE 4.6 mph - 0.08 in Rain Light Rain
1:35 PM 33.8 °F 28.6 °F 33.8 °F 100% 29.73 in 1.5 mi ENE 5.8 mph - 0.15 in Rain Light Rain
1:55 PM 33.8 °F 27.0 °F 33.8 °F 100% 29.71 in 1.5 mi ENE 8.1 mph - 0.19 in Rain Light Rain
2:15 PM 33.8 °F 30.8 °F 33.8 °F 100% 29.71 in 2.5 mi NNE 3.5 mph - 0.04 in Rain Light Rain
2:35 PM 35.6 °F 31.7 °F 33.8 °F 93% 29.69 in 3.0 mi NE 4.6 mph - 0.08 in Rain Rain
2:55 PM 35.6 °F 30.7 °F 35.6 °F 100% 29.71 in 2.5 mi WSW 5.8 mph - 0.11 in Rain Rain
3:15 PM 35.6 °F - 35.6 °F 100% 29.69 in 3.0 mi Calm Calm - 0.01 in Rain Rain
3:35 PM 35.6 °F - 35.6 °F 100% 29.68 in 7.0 mi Calm Calm - 0.01 in   Light Drizzle
3:55 PM 35.6 °F - 35.6 °F 100% 29.66 in 3.0 mi Calm Calm - 0.01 in Rain Rain
4:15 PM 37.4 °F - 35.6 °F 93% 29.66 in 2.5 mi Calm Calm - N/A   Light Drizzle
4:35 PM 37.4 °F - 37.4 °F 100% 29.66 in 3.0 mi Calm Calm - N/A   Overcast
4:55 PM 37.4 °F - 37.4 °F 100% 29.64 in 4.0 mi Calm Calm - N/A   Overcast
5:15 PM 35.6 °F 32.8 °F 35.6 °F 100% 29.63 in 0.8 mi East 3.5 mph - N/A   Overcast
5:35 PM 35.6 °F 29.9 °F 35.6 °F 100% 29.64 in 0.2 mi SSW 6.9 mph - N/A Fog Fog
5:55 PM 35.6 °F - 35.6 °F 100% 29.63 in 0.2 mi Calm Calm - N/A Fog Fog
6:15 PM 35.6 °F 30.7 °F 35.6 °F 100% 29.65 in 2.0 mi WSW 5.8 mph - N/A   Overcast
6:35 PM 35.6 °F - 35.6 °F 100% 29.65 in 2.5 mi Calm Calm - N/A   Overcast
6:55 PM 35.6 °F 31.7 °F 35.6 °F 100% 29.66 in 2.0 mi West 4.6 mph - N/A   Overcast
7:15 PM 35.6 °F - 35.6 °F 100% 29.67 in 2.5 mi Calm Calm - N/A   Overcast
7:35 PM 35.6 °F 31.7 °F 35.6 °F 100% 29.67 in 2.5 mi South 4.6 mph - N/A   Overcast
7:55 PM 35.6 °F - 35.6 °F 100% 29.66 in 1.2 mi Calm Calm - N/A   Overcast
8:15 PM 35.6 °F - 35.6 °F 100% 29.67 in 0.8 mi Calm Calm - N/A   Overcast
8:35 PM 35.6 °F - 35.6 °F 100% 29.67 in 0.8 mi Calm Calm - N/A   Overcast
8:55 PM 35.6 °F - 35.6 °F 100% 29.67 in 0.5 mi Calm Calm - N/A Fog Fog
9:15 PM 35.6 °F - 35.6 °F 100% 29.67 in 0.5 mi Calm Calm - N/A Fog Fog
9:35 PM 35.6 °F - 35.6 °F 100% 29.68 in 0.5 mi Calm Calm - N/A Fog Fog
9:55 PM 35.6 °F - 35.6 °F 100% 29.68 in 0.8 mi Calm Calm - N/A   Overcast
10:15 PM 35.6 °F - 35.6 °F 100% 29.67 in 0.5 mi Calm Calm - N/A Fog Fog
10:35 PM 35.6 °F 30.7 °F 35.6 °F 100% 29.67 in 0.2 mi South 5.8 mph - N/A Fog Fog
10:55 PM 35.6 °F - 35.6 °F 100% 29.67 in 0.2 mi Calm Calm - N/A Fog Fog
11:15 PM 35.6 °F - 35.6 °F 100% 29.66 in 0.2 mi Calm Calm - N/A Fog Fog
11:35 PM 35.6 °F - 35.6 °F 100% 29.67 in 0.5 mi Calm Calm - N/A Fog Fog
11:55 PM 35.6 °F - 35.6 °F 100% 29.67 in 0.2 mi Calm Calm - N/A Fog Fog